Voltar ao catálogo

SL-16 DEB

AtivoLEO
NORAD 32006·DEBRIS·🇷🇺 Russia

Lançado Jun 10, 2004 de Baikonur Cosmodrome

Loading…

Próximas Passagens (próximas 24 horas)

TLE

EnvelhecendoSource: Space-Track

Época: Sep 11, 2026, 10:02 UTC

1 32006U 04021J   26254.41867434  .00001152  00000-0  84808-3 0  9994
2 32006  71.0944 162.4754 0167830 165.9239 194.6636 13.91132477668493

Acompanhe SL-16 DEB em tempo real com AllMySat

Download on the App Store